map of RPMR home
Great Circle Mapper logo
RPMR - Airport
Location
City:  General Santos Intl, Mindanao Island, Philippines
Name:Tambler
ICAO:RPMR

Details
Type:Airport (Aerodrome, Airfield)
Use:Public/Civil, International (customs port of entry)
Latitude:603'29"N (6.058003)
Longitude:12505'46"E (125.096033)
Datum:WGS 1984
Elevation:505 ft (154 m)
Variation:0.45W (WMM2015 magnetic declination)
-0.11 annual change
Runways:1
Longest:10587 × 148 ft (3227 × 45 m), paved

Time
Time Zone:UTC+8
Local Time:

Weather
TAF:RPMR 252300Z 2600/2624 29006KT 9999 FEW018 SCT080 BKN250
TEMPO 2606/2612 27004KT 9000 -SHRA SCT018 BKN080

Related Locations
Nearby:
Farthest:SJDG: 12391 mi / 19942 km
Altamira [Projeto Iriri], PA, BR

Find:

   beyond  
but within

Other Information
Maps:
NOTAMs:
Links:
Sources:

  
flag of Philippines   

Sectional Chart

Flight Planning
at skyvector.com

Satellite Image

Google Maps Satellite view

 

Copyright © 2004-2016 Karl L. Swartz. All rights reserved.
The Great Circle Mapper name and logo are trademarks of the Great Circle Mapper.
All other trademarks mentioned herein belong to their respective owners.
Please see credits for attibutions and further copyright information.

  Follow gcmap on Facebook Follow gcmap on Twitter Follow gcmap on Google+ GCmap on LinkedIn

hCard Microformat

Geo Microformat